This is the latest recevied weather packets stored in our database for station/object IN3XSV. If no packets are shown the sender has not sent any weather packets the latest 10 day(s).
| Time | Temp. | Humidity | Pressure | Rain* | Wind** | Luminosity | Snow |
|---|---|---|---|---|---|---|---|
| 1777748028 | 18.33° C | 42% | 1013.6 hPa | 0 mm | - | - | - |
| 1777747728 | 18.33° C | 42% | 1013.6 hPa | 0 mm | - | - | - |
| 1777747428 | 18.33° C | 42% | 1013.6 hPa | 0 mm | - | - | - |
| 1777747128 | 18.33° C | 42% | 1013.5 hPa | 0 mm | - | - | - |
| 1777746828 | 18.89° C | 42% | 1013.4 hPa | 0 mm | - | - | - |
| 1777746528 | 18.89° C | 41% | 1013.4 hPa | 0 mm | - | - | - |
| 1777746228 | 18.89° C | 41% | 1013.1 hPa | 0 mm | - | - | - |
| 1777745928 | 18.89° C | 40% | 1013.2 hPa | 0 mm | - | - | - |
| 1777745628 | 19.44° C | 41% | 1013.2 hPa | 0 mm | - | - | - |
| 1777745328 | 19.44° C | 41% | 1013.1 hPa | 0 mm | - | - | - |
| 1777745028 | 19.44° C | 40% | 1013 hPa | 0 mm | - | - | - |
| 1777744728 | 20° C | 40% | 1013 hPa | 0 mm | - | - | - |
| 1777744428 | 20° C | 40% | 1013.1 hPa | 0 mm | - | - | - |
| 1777744128 | 20° C | 39% | 1013.1 hPa | 0 mm | - | - | - |
| 1777743828 | 20.56° C | 38% | 1013 hPa | 0 mm | - | - | - |
| 1777743528 | 20.56° C | 39% | 1013 hPa | 0 mm | - | - | - |
| 1777743228 | 21.11° C | 39% | 1012.9 hPa | 0 mm | - | - | - |
| 1777742928 | 21.11° C | 39% | 1012.9 hPa | 0 mm | - | - | - |
| 1777742628 | 21.11° C | 38% | 1012.8 hPa | 0 mm | - | - | - |
| 1777742328 | 21.67° C | 38% | 1012.7 hPa | 0 mm | - | - | - |
| 1777742028 | 21.67° C | 36% | 1012.8 hPa | 0 mm | - | - | - |
| 1777741728 | 22.22° C | 37% | 1012.9 hPa | 0 mm | - | - | - |
| 1777741428 | 21.67° C | 36% | 1012.9 hPa | 0 mm | - | - | - |
| 1777741128 | 22.22° C | 36% | 1012.8 hPa | 0 mm | - | - | - |
| 1777740828 | 22.22° C | 35% | 1012.7 hPa | 0 mm | - | - | - |
* Rain latest hour (hover to see other rain measurements)
** Current wind speed in m/s (hover to see current wind gust speed)